Regional Weather Roundup
Issued by NWS Upton, NY

Current Version | Previous Version | Text Only | Print | Product List | Glossary On
Versions: 1 2 3 4 5 6 7 8 9 10 11 12 13 14 15 16 17 18 19 20 21 22 23 24 25 26 27 28 29 30 31 32 33 34 35 36 37 38 39 40 41 42 43 44 45 46 47 48 49 50
000 ASUS41 KOKX 232305 RWROKX REGIONAL WEATHER ROUNDUP NATIONAL WEATHER SERVICE NEW YORK NY 700 PM EDT SAT JUL 23 2016 NOTE: "FAIR" INDICATES FEW OR NO CLOUDS BELOW 12,000 FEET WITH NO SIGNIFICANT WEATHER AND/OR OBSTRUCTIONS TO VISIBILITY. NYZ071-072-176-178-NJZ106-104-240000- NEW YORK CITY METRO AREA CITY SKY/WX TMP DP RH WIND PRES REMARKS Central Park MOSUNNY 91 60 35 MISG 29.82R HX 90 LaGuardia APRT MOSUNNY 96 57 27 SW12 29.78R HX 95 Kennedy INTL MOSUNNY 95 55 26 W17 29.80R HX 93 Newark/Liberty MOSUNNY 95 56 26 W15 29.79R HX 93 BRNX BOT. GARD N/A 93 54 26 W20 29.80F HX 91 Wall St Helipt CLEAR 93 59 31 W6G17 29.80R HX 92 Teterboro MOSUNNY 94 57 28 W5 29.78R HX 92 $$ NYZ177-179-078>081-240000- LONG ISLAND NEW YORK CITY SKY/WX TMP DP RH WIND PRES REMARKS FARMINGDALE SUNNY 93 53 25 W8 29.79R HX 90 ISLIP MOSUNNY 93 53 25 W10 29.79R HX 90 SHIRLEY SUNNY 94 56 27 W8 29.79R HX 92 RIVERHEAD NOT AVBL WESTHAMPTON SUNNY 87 64 46 S6 29.80R SOUTHAMPTON N/A 82 70 65 SW3 29.75R BRIDGEHAMPTON N/A 88 63 42 CALM 29.77S EAST HAMPTON FAIR 89 59 35 W3 29.78R MONTAUK POINT N/A 87 64 46 SW5 29.78S $$ NYZ052-065-067-240000- HUDSON VALLEY CITY SKY/WX TMP DP RH WIND PRES REMARKS WHITE PLAINS MOSUNNY 92 51 24 NW13 29.81R NEWBURGH NOT AVBL MONTGOMERY SUNNY 91 59 33 N12 29.83R HX 90 POUGHKEEPSIE SUNNY 92 56 29 NW12G23 29.80R HX 90 ALBANY TSTM 73 61 65 NW15G30 29.89R $$ NJZ001-105-106-008-010-013-015-019>022-104-240000- NEW JERSEY CITY SKY/WX TMP DP RH WIND PRES REMARKS NEWARK/LIBERTY MOSUNNY 95 56 26 W15 29.79R HX 93 TETERBORO MOSUNNY 94 57 28 W5 29.78R HX 92 CALDWELL MOSUNNY 95 57 27 NW9 29.80R HX 94 MORRISTOWN MOSUNNY 91 61 35 NW8 29.81R HX 91 SOMERVILLE SUNNY 93 59 31 CALM 29.79R HX 92 SUSSEX SUNNY 92 52 25 VRB6 29.84R ANDOVER N/A 91 53 27 VRB5 29.84R TRENTON SUNNY 87 68 52 SW13G21 29.83R HX 90 MILLVILLE CLOUDY 86 75 69 S3 29.84S THUNDER HX 95 ATLANTIC CITY CLOUDY 75 69 81 CALM 29.87R WRIGHTSTOWN NOT AVBL TOMS RIVER CLOUDY 80 72 76 SW14 29.85R BELMAR CLOUDY 94 59 31 SW5 29.84R HX 93 $$ PAZ047>061-062-071-240000- EASTERN PENNSYLVANIA CITY SKY/WX TMP DP RH WIND PRES REMARKS PHILADELPHIA CLOUDY 84 71 65 S6 29.86R ALLENTOWN SUNNY 94 57 28 W8 29.83R HX 92 SCRANTON SUNNY 92 50 23 NW16 29.87R $$ CTZ002-004>006-009-010-012-RIZ004-006-007-MAZ004-011-015-240000- SOUTHERN NEW ENGLAND IN CT CITY SKY/WX TMP DP RH WIND PRES REMARKS BRADLEY INTL MOSUNNY 91 55 29 NW17 29.76S HARTFORD MOSUNNY 94 56 27 NW9G22 29.76S HX 92 DANBURY SUNNY 91 55 29 VRB6 29.82R WTRBRY/OXFORD MOSUNNY 88 54 31 NW7G20 29.85R BRIDGEPORT SUNNY 94 56 27 NW10 29.77R HX 92 MERIDEN SUNNY 92 53 26 NW9 29.77S NEW HAVEN SUNNY 91 58 32 NW7 29.78R HX 90 CHESTER FAIR 90 55 31 VRB5 29.79S GROTON MOSUNNY 89 62 40 W5 29.76R WILLIMANTIC NOT AVBL IN RI CITY SKY/WX TMP DP RH WIND PRES REMARKS PROVIDENCE SUNNY 91 58 32 W13 29.75R HX 90 BLOCK ISLAND SUNNY 80 65 59 SW12 29.77S WESTERLY MOSUNNY 86 61 42 SW8 29.76S IN MA CITY SKY/WX TMP DP RH WIND PRES REMARKS BOSTON PTSUNNY 80 60 50 CALM 29.73R WORCESTER MOSUNNY 84 55 36 NW18 29.82R WESTFIELD SUNNY 90 54 29 NW18 29.79R PROVINCETOWN MOSUNNY 81 71 71 SE6 29.71S NANTUCKET SUNNY 77 66 68 W12 29.75F $$ ANZ330-335-338-340-345-350-353-355-240000- COASTAL MARINE OBSERVATIONS STATION/POSITION TIME SKY/WX TEMP WIND PRES VSBY WAVE AIR SEA DIR/SP/G HT/PER (UTC) (F) (DEG/KT/KT) (MB) (MI) (FT/S) NY HARB ENTRANCE 2150 85 77 240/ 4/ 6 1008.6 2/ 6 20S FIRE ISLAND 2150 79 76 220/ 10/ 10 1008.7 3/ 6 GREAT SOUTH BAY 2200 83 81 230/ 10/ 16 N/A 23 SSW MONTAUK P 2150 77 72 230/ 12/ 14 1008.6 4/ 8 15 E BARNEGAT LI 2222 76 N/A 3/ 6 HUDSON CANYON 2150 79 78 1009.9 4/ 7 KINGS POINT 2200 73 N/A EXECUTION ROCKS 2200 86 300/ 12/ 16 N/A CENTRAL LI SOUND 2200 79 74 240/ 8/ 10 N/A 1/ 2 EASTERN LI SOUND 2200 76 67 240/ 12/ 16 N/A ROBBINS REEF 2200 300/ 16/ 18 N/A $$ >>>>>>>>>>>>>>>>>>>>>>>>>>>> KEY <<<<<<<<<<<<<<<<<<<<<<<<<<< > < > SKY/WX - SKY CONDITION/PRESENT WEATHER < > TMP - TEMPERATURE IN FAHRENHEIT < > DP - DEWPOINT IN FAHRENHEIT < > RH - RELATIVE HUMIDITY IN PERCENT < > WIND - DIRECTION AND SPEED IN MPH < > PRES - MEAN SEA LEVEL PRESSURE IN INCHES OF HG < > WCI - WIND CHILL INDEX < > VSB - VISIBILITY IN MILES < > HX - HEAT INDEX < > TC - TEMPERATURE IN CELSIUS < > VRB - VARIABLE WIND DIRECTION < > < >>>>>>>>>>>>>>>>>>>>>>>>>>>> KEY <<<<<<<<<<<<<<<<<<<<<<<<<<<

USA.gov is the U.S. government's official web portal to all federal, state and local government web resources and services.